owner,sensor,date,latitude,longitude,relative_humidity,qcFlag 
COMPS,ioos:station:USF.COMPS:ARP:1,2013-12-03T16:00:00Z,28.4330,-82.6670,67.36,1111122 
COMPS,ioos:station:USF.COMPS:ARP:1,2013-12-03T16:06:00Z,28.4330,-82.6670,67.7,1111122 
COMPS,ioos:station:USF.COMPS:ARP:1,2013-12-03T16:12:00Z,28.4330,-82.6670,66.33,1111122 
COMPS,ioos:station:USF.COMPS:ARP:1,2013-12-03T16:18:00Z,28.4330,-82.6670,65.11,1111122 
COMPS,ioos:station:USF.COMPS:ARP:1,2013-12-03T16:24:00Z,28.4330,-82.6670,64.07,1111122 
COMPS,ioos:station:USF.COMPS:ARP:1,2013-12-03T16:30:00Z,28.4330,-82.6670,64.03,1111122 
COMPS,ioos:station:USF.COMPS:ARP:1,2013-12-03T16:36:00Z,28.4330,-82.6670,63.6,1111122 
COMPS,ioos:station:USF.COMPS:ARP:1,2013-12-03T16:42:00Z,28.4330,-82.6670,62.77,1111122 
COMPS,ioos:station:USF.COMPS:ARP:1,2013-12-03T16:48:00Z,28.4330,-82.6670,62.88,1111122 
COMPS,ioos:station:USF.COMPS:ARP:1,2013-12-03T16:54:00Z,28.4330,-82.6670,63.07,1111122 
COMPS,ioos:station:USF.COMPS:ARP:1,2013-12-03T17:00:00Z,28.4330,-82.6670,66.18,1111122 
COMPS,ioos:station:USF.COMPS:ARP:1,2013-12-03T17:06:00Z,28.4330,-82.6670,75.96,1111122 
COMPS,ioos:station:USF.COMPS:ARP:1,2013-12-03T17:12:00Z,28.4330,-82.6670,79.7,1111122 
COMPS,ioos:station:USF.COMPS:ARP:1,2013-12-03T17:18:00Z,28.4330,-82.6670,80.44,1111122 
COMPS,ioos:station:USF.COMPS:ARP:1,2013-12-03T17:24:00Z,28.4330,-82.6670,77.87,1111122 
COMPS,ioos:station:USF.COMPS:ARP:1,2013-12-03T17:30:00Z,28.4330,-82.6670,76.1,1111122 
COMPS,ioos:station:USF.COMPS:ARP:1,2013-12-03T17:36:00Z,28.4330,-82.6670,73.1,1111122 
COMPS,ioos:station:USF.COMPS:ARP:1,2013-12-03T17:42:00Z,28.4330,-82.6670,73.79,1111122 
COMPS,ioos:station:USF.COMPS:ARP:1,2013-12-03T17:48:00Z,28.4330,-82.6670,71.61,1111122 
COMPS,ioos:station:USF.COMPS:ARP:1,2013-12-03T17:54:00Z,28.4330,-82.6670,64.3,1111122 
COMPS,ioos:station:USF.COMPS:ARP:1,2013-12-03T18:00:00Z,28.4330,-82.6670,60.81,1111122 
COMPS,ioos:station:USF.COMPS:ARP:1,2013-12-03T18:06:00Z,28.4330,-82.6670,58.17,1111122 
COMPS,ioos:station:USF.COMPS:ARP:1,2013-12-03T18:12:00Z,28.4330,-82.6670,67.03,1111122 
COMPS,ioos:station:USF.COMPS:ARP:1,2013-12-03T18:18:00Z,28.4330,-82.6670,61.16,1111122 
COMPS,ioos:station:USF.COMPS:ARP:1,2013-12-03T18:24:00Z,28.4330,-82.6670,58.57,1111122 
COMPS,ioos:station:USF.COMPS:ARP:1,2013-12-03T18:30:00Z,28.4330,-82.6670,58.58,1111122 
COMPS,ioos:station:USF.COMPS:ARP:1,2013-12-03T18:36:00Z,28.4330,-82.6670,58.69,1111122 
COMPS,ioos:station:USF.COMPS:ARP:1,2013-12-03T18:42:00Z,28.4330,-82.6670,61.3,1111122 
COMPS,ioos:station:USF.COMPS:ARP:1,2013-12-03T18:48:00Z,28.4330,-82.6670,61.77,1111122 
COMPS,ioos:station:USF.COMPS:ARP:1,2013-12-03T18:54:00Z,28.4330,-82.6670,61.46,1111122 
COMPS,ioos:station:USF.COMPS:ARP:1,2013-12-03T19:00:00Z,28.4330,-82.6670,61.9,1111122 
COMPS,ioos:station:USF.COMPS:ARP:1,2013-12-03T19:06:00Z,28.4330,-82.6670,70.04,1111122 
COMPS,ioos:station:USF.COMPS:ARP:1,2013-12-03T19:12:00Z,28.4330,-82.6670,70.39,1111122 
COMPS,ioos:station:USF.COMPS:ARP:1,2013-12-03T19:18:00Z,28.4330,-82.6670,69.87,1111122 
COMPS,ioos:station:USF.COMPS:ARP:1,2013-12-03T19:24:00Z,28.4330,-82.6670,73.12,1111122 
COMPS,ioos:station:USF.COMPS:ARP:1,2013-12-03T19:30:00Z,28.4330,-82.6670,74.95,1111122 
COMPS,ioos:station:USF.COMPS:ARP:1,2013-12-03T19:36:00Z,28.4330,-82.6670,71.94,1111122 
COMPS,ioos:station:USF.COMPS:ARP:1,2013-12-03T19:42:00Z,28.4330,-82.6670,68.76,1111122 
COMPS,ioos:station:USF.COMPS:ARP:1,2013-12-03T19:48:00Z,28.4330,-82.6670,68.78,1111122 
COMPS,ioos:station:USF.COMPS:ARP:1,2013-12-03T19:54:00Z,28.4330,-82.6670,69.48,1111122 
COMPS,ioos:station:USF.COMPS:ARP:1,2013-12-03T20:00:00Z,28.4330,-82.6670,69.63,1111122 
COMPS,ioos:station:USF.COMPS:ARP:1,2013-12-03T20:06:00Z,28.4330,-82.6670,71.53,1111122 
COMPS,ioos:station:USF.COMPS:ARP:1,2013-12-03T20:12:00Z,28.4330,-82.6670,72.61,1111122 
COMPS,ioos:station:USF.COMPS:ARP:1,2013-12-03T20:18:00Z,28.4330,-82.6670,73.78,1111122 
COMPS,ioos:station:USF.COMPS:ARP:1,2013-12-03T20:24:00Z,28.4330,-82.6670,76.13,1111122 
COMPS,ioos:station:USF.COMPS:ARP:1,2013-12-03T20:30:00Z,28.4330,-82.6670,78.51,1111122 
COMPS,ioos:station:USF.COMPS:ARP:1,2013-12-03T20:36:00Z,28.4330,-82.6670,78.12,1111122 
COMPS,ioos:station:USF.COMPS:ARP:1,2013-12-03T20:42:00Z,28.4330,-82.6670,79.3,1111122 
COMPS,ioos:station:USF.COMPS:ARP:1,2013-12-03T20:48:00Z,28.4330,-82.6670,80.88,1111122 
COMPS,ioos:station:USF.COMPS:ARP:1,2013-12-03T20:54:00Z,28.4330,-82.6670,82.7,1111122 
COMPS,ioos:station:USF.COMPS:ARP:1,2013-12-03T21:00:00Z,28.4330,-82.6670,83.36,1111122 
COMPS,ioos:station:USF.COMPS:ARP:1,2013-12-03T21:06:00Z,28.4330,-82.6670,82.98,1111122 
COMPS,ioos:station:USF.COMPS:ARP:1,2013-12-03T21:12:00Z,28.4330,-82.6670,81.23,1111122 
COMPS,ioos:station:USF.COMPS:ARP:1,2013-12-03T21:18:00Z,28.4330,-82.6670,79.01,1111122 
COMPS,ioos:station:USF.COMPS:ARP:1,2013-12-03T21:24:00Z,28.4330,-82.6670,79.51,1111122 
COMPS,ioos:station:USF.COMPS:ARP:1,2013-12-03T21:30:00Z,28.4330,-82.6670,81.06,1111122 
COMPS,ioos:station:USF.COMPS:ARP:1,2013-12-03T21:36:00Z,28.4330,-82.6670,80.88,1111122 
COMPS,ioos:station:USF.COMPS:ARP:1,2013-12-03T21:42:00Z,28.4330,-82.6670,79.41,1111122 
COMPS,ioos:station:USF.COMPS:ARP:1,2013-12-03T21:48:00Z,28.4330,-82.6670,79.73,1111122 
COMPS,ioos:station:USF.COMPS:ARP:1,2013-12-03T21:54:00Z,28.4330,-82.6670,80.49,1111122 
COMPS,ioos:station:USF.COMPS:ARP:1,2013-12-03T22:00:00Z,28.4330,-82.6670,81.28,1111122 
COMPS,ioos:station:USF.COMPS:ARP:1,2013-12-03T22:06:00Z,28.4330,-82.6670,80.92,1111122 
COMPS,ioos:station:USF.COMPS:ARP:1,2013-12-03T22:12:00Z,28.4330,-82.6670,81.01,1111122 
COMPS,ioos:station:USF.COMPS:ARP:1,2013-12-03T22:18:00Z,28.4330,-82.6670,81.52,1111122 
COMPS,ioos:station:USF.COMPS:ARP:1,2013-12-03T22:24:00Z,28.4330,-82.6670,82.35,1111122 
COMPS,ioos:station:USF.COMPS:ARP:1,2013-12-03T22:30:00Z,28.4330,-82.6670,83.38,1111122 
COMPS,ioos:station:USF.COMPS:ARP:1,2013-12-03T22:36:00Z,28.4330,-82.6670,84.42,1111122 
COMPS,ioos:station:USF.COMPS:ARP:1,2013-12-03T22:42:00Z,28.4330,-82.6670,85.45,1111122 
COMPS,ioos:station:USF.COMPS:ARP:1,2013-12-03T22:48:00Z,28.4330,-82.6670,86.19,1111122 
COMPS,ioos:station:USF.COMPS:ARP:1,2013-12-03T22:54:00Z,28.4330,-82.6670,86.71,1111122 
COMPS,ioos:station:USF.COMPS:ARP:1,2013-12-03T23:00:00Z,28.4330,-82.6670,87.25,1111122 
COMPS,ioos:station:USF.COMPS:ARP:1,2013-12-03T23:06:00Z,28.4330,-82.6670,87.88,1111122 
COMPS,ioos:station:USF.COMPS:ARP:1,2013-12-03T23:12:00Z,28.4330,-82.6670,88.67,1111122 
COMPS,ioos:station:USF.COMPS:ARP:1,2013-12-03T23:18:00Z,28.4330,-82.6670,90.1,1111122 
COMPS,ioos:station:USF.COMPS:ARP:1,2013-12-03T23:24:00Z,28.4330,-82.6670,90.73,1111122 
COMPS,ioos:station:USF.COMPS:ARP:1,2013-12-03T23:30:00Z,28.4330,-82.6670,90.93,1111122 
COMPS,ioos:station:USF.COMPS:ARP:1,2013-12-03T23:36:00Z,28.4330,-82.6670,91.25,1111122 
COMPS,ioos:station:USF.COMPS:ARP:1,2013-12-03T23:42:00Z,28.4330,-82.6670,91.16,1111122 
COMPS,ioos:station:USF.COMPS:ARP:1,2013-12-03T23:48:00Z,28.4330,-82.6670,90.72,1111122 
COMPS,ioos:station:USF.COMPS:ARP:1,2013-12-03T23:54:00Z,28.4330,-82.6670,90.5,1111122 
COMPS,ioos:station:USF.COMPS:ARP:1,2013-12-04T00:00:00Z,28.4330,-82.6670,89.77,1111122 
COMPS,ioos:station:USF.COMPS:ARP:1,2013-12-04T00:06:00Z,28.4330,-82.6670,87.32,1111122 
COMPS,ioos:station:USF.COMPS:ARP:1,2013-12-04T00:12:00Z,28.4330,-82.6670,84.87,1111122 
COMPS,ioos:station:USF.COMPS:ARP:1,2013-12-04T00:18:00Z,28.4330,-82.6670,83.44,1111122 
COMPS,ioos:station:USF.COMPS:ARP:1,2013-12-04T00:24:00Z,28.4330,-82.6670,82.85,1111122 
COMPS,ioos:station:USF.COMPS:ARP:1,2013-12-04T00:30:00Z,28.4330,-82.6670,82.73,1111122 
COMPS,ioos:station:USF.COMPS:ARP:1,2013-12-04T00:36:00Z,28.4330,-82.6670,82.87,1111122 
COMPS,ioos:station:USF.COMPS:ARP:1,2013-12-04T00:42:00Z,28.4330,-82.6670,83.24,1111122 
COMPS,ioos:station:USF.COMPS:ARP:1,2013-12-04T00:48:00Z,28.4330,-82.6670,83.46,1111122 
COMPS,ioos:station:USF.COMPS:ARP:1,2013-12-04T00:54:00Z,28.4330,-82.6670,83.76,1111122 
COMPS,ioos:station:USF.COMPS:ARP:1,2013-12-04T01:00:00Z,28.4330,-82.6670,84.29,1111122 
COMPS,ioos:station:USF.COMPS:ARP:1,2013-12-04T01:06:00Z,28.4330,-82.6670,84.86,1111122 
COMPS,ioos:station:USF.COMPS:ARP:1,2013-12-04T01:12:00Z,28.4330,-82.6670,85.02,1111122 
COMPS,ioos:station:USF.COMPS:ARP:1,2013-12-04T01:18:00Z,28.4330,-82.6670,85.37,1111122 
COMPS,ioos:station:USF.COMPS:ARP:1,2013-12-04T01:24:00Z,28.4330,-82.6670,85.81,1111122 
COMPS,ioos:station:USF.COMPS:ARP:1,2013-12-04T01:30:00Z,28.4330,-82.6670,86.5,1111122 
COMPS,ioos:station:USF.COMPS:ARP:1,2013-12-04T01:36:00Z,28.4330,-82.6670,86.94,1111122 
COMPS,ioos:station:USF.COMPS:ARP:1,2013-12-04T01:42:00Z,28.4330,-82.6670,87.53,1111122 
COMPS,ioos:station:USF.COMPS:ARP:1,2013-12-04T01:48:00Z,28.4330,-82.6670,87.94,1111122 
COMPS,ioos:station:USF.COMPS:ARP:1,2013-12-04T01:54:00Z,28.4330,-82.6670,88.4,1111122 
COMPS,ioos:station:USF.COMPS:ARP:1,2013-12-04T02:00:00Z,28.4330,-82.6670,88.84,1111122 
COMPS,ioos:station:USF.COMPS:ARP:1,2013-12-04T02:06:00Z,28.4330,-82.6670,89.35,1111122 
COMPS,ioos:station:USF.COMPS:ARP:1,2013-12-04T02:12:00Z,28.4330,-82.6670,89.79,1111122 
COMPS,ioos:station:USF.COMPS:ARP:1,2013-12-04T02:18:00Z,28.4330,-82.6670,90.03,1111122 
COMPS,ioos:station:USF.COMPS:ARP:1,2013-12-04T02:24:00Z,28.4330,-82.6670,90.37,1111122 
COMPS,ioos:station:USF.COMPS:ARP:1,2013-12-04T02:30:00Z,28.4330,-82.6670,90.63,1111122 
COMPS,ioos:station:USF.COMPS:ARP:1,2013-12-04T02:36:00Z,28.4330,-82.6670,91.0,1111122 
COMPS,ioos:station:USF.COMPS:ARP:1,2013-12-04T02:42:00Z,28.4330,-82.6670,91.31,1111122 
COMPS,ioos:station:USF.COMPS:ARP:1,2013-12-04T02:48:00Z,28.4330,-82.6670,91.67,1111122 
COMPS,ioos:station:USF.COMPS:ARP:1,2013-12-04T02:54:00Z,28.4330,-82.6670,91.99,1111122 
COMPS,ioos:station:USF.COMPS:ARP:1,2013-12-04T03:00:00Z,28.4330,-82.6670,92.68,1111122 
COMPS,ioos:station:USF.COMPS:ARP:1,2013-12-04T03:06:00Z,28.4330,-82.6670,93.27,1111122 
COMPS,ioos:station:USF.COMPS:ARP:1,2013-12-04T03:12:00Z,28.4330,-82.6670,93.33,1111122 
COMPS,ioos:station:USF.COMPS:ARP:1,2013-12-04T03:18:00Z,28.4330,-82.6670,93.18,1111122 
COMPS,ioos:station:USF.COMPS:ARP:1,2013-12-04T03:24:00Z,28.4330,-82.6670,93.38,1111122 
COMPS,ioos:station:USF.COMPS:ARP:1,2013-12-04T03:30:00Z,28.4330,-82.6670,93.81,1111122 
COMPS,ioos:station:USF.COMPS:ARP:1,2013-12-04T03:36:00Z,28.4330,-82.6670,94.46,1111122 
COMPS,ioos:station:USF.COMPS:ARP:1,2013-12-04T03:42:00Z,28.4330,-82.6670,94.78,1111122 
COMPS,ioos:station:USF.COMPS:ARP:1,2013-12-04T03:48:00Z,28.4330,-82.6670,94.94,1111122 
COMPS,ioos:station:USF.COMPS:ARP:1,2013-12-04T03:54:00Z,28.4330,-82.6670,95.1,1111122 
COMPS,ioos:station:USF.COMPS:ARP:1,2013-12-04T04:00:00Z,28.4330,-82.6670,95.25,1111122 
COMPS,ioos:station:USF.COMPS:ARP:1,2013-12-04T04:06:00Z,28.4330,-82.6670,95.44,1111122 
COMPS,ioos:station:USF.COMPS:ARP:1,2013-12-04T04:12:00Z,28.4330,-82.6670,95.55,1111122 
COMPS,ioos:station:USF.COMPS:ARP:1,2013-12-04T04:18:00Z,28.4330,-82.6670,95.6,1111122 
COMPS,ioos:station:USF.COMPS:ARP:1,2013-12-04T04:24:00Z,28.4330,-82.6670,95.65,1111122 
COMPS,ioos:station:USF.COMPS:ARP:1,2013-12-04T04:30:00Z,28.4330,-82.6670,95.71,1111122 
COMPS,ioos:station:USF.COMPS:ARP:1,2013-12-04T04:36:00Z,28.4330,-82.6670,95.79,1111122 
COMPS,ioos:station:USF.COMPS:ARP:1,2013-12-04T04:42:00Z,28.4330,-82.6670,95.85,1111122 
COMPS,ioos:station:USF.COMPS:ARP:1,2013-12-04T04:48:00Z,28.4330,-82.6670,96.0,1111122 
COMPS,ioos:station:USF.COMPS:ARP:1,2013-12-04T04:54:00Z,28.4330,-82.6670,95.97,1111122 
COMPS,ioos:station:USF.COMPS:ARP:1,2013-12-04T05:00:00Z,28.4330,-82.6670,96.1,1111122 
COMPS,ioos:station:USF.COMPS:ARP:1,2013-12-04T05:06:00Z,28.4330,-82.6670,96.24,1111122 
COMPS,ioos:station:USF.COMPS:ARP:1,2013-12-04T05:12:00Z,28.4330,-82.6670,96.43,1111122 
COMPS,ioos:station:USF.COMPS:ARP:1,2013-12-04T05:18:00Z,28.4330,-82.6670,96.51,1111122 
COMPS,ioos:station:USF.COMPS:ARP:1,2013-12-04T05:24:00Z,28.4330,-82.6670,96.6,1111122 
COMPS,ioos:station:USF.COMPS:ARP:1,2013-12-04T05:30:00Z,28.4330,-82.6670,96.55,1111122 
COMPS,ioos:station:USF.COMPS:ARP:1,2013-12-04T05:36:00Z,28.4330,-82.6670,96.58,1111122 
COMPS,ioos:station:USF.COMPS:ARP:1,2013-12-04T05:42:00Z,28.4330,-82.6670,96.58,1111122 
COMPS,ioos:station:USF.COMPS:ARP:1,2013-12-04T05:48:00Z,28.4330,-82.6670,96.6,1111122 
COMPS,ioos:station:USF.COMPS:ARP:1,2013-12-04T05:54:00Z,28.4330,-82.6670,96.59,1111122 
COMPS,ioos:station:USF.COMPS:ARP:1,2013-12-04T06:00:00Z,28.4330,-82.6670,96.58,1111122 
COMPS,ioos:station:USF.COMPS:ARP:1,2013-12-04T06:06:00Z,28.4330,-82.6670,96.53,1111122 
COMPS,ioos:station:USF.COMPS:ARP:1,2013-12-04T06:12:00Z,28.4330,-82.6670,96.54,1111122 
COMPS,ioos:station:USF.COMPS:ARP:1,2013-12-04T06:18:00Z,28.4330,-82.6670,96.53,1111122 
COMPS,ioos:station:USF.COMPS:ARP:1,2013-12-04T06:24:00Z,28.4330,-82.6670,96.55,1111122 
COMPS,ioos:station:USF.COMPS:ARP:1,2013-12-04T06:30:00Z,28.4330,-82.6670,96.6,1111122 
COMPS,ioos:station:USF.COMPS:ARP:1,2013-12-04T06:36:00Z,28.4330,-82.6670,96.68,1111122 
COMPS,ioos:station:USF.COMPS:ARP:1,2013-12-04T06:42:00Z,28.4330,-82.6670,96.72,1111122 
COMPS,ioos:station:USF.COMPS:ARP:1,2013-12-04T06:48:00Z,28.4330,-82.6670,96.72,1111122 
COMPS,ioos:station:USF.COMPS:ARP:1,2013-12-04T06:54:00Z,28.4330,-82.6670,96.65,1111122 
COMPS,ioos:station:USF.COMPS:ARP:1,2013-12-04T07:00:00Z,28.4330,-82.6670,96.69,1111122 
COMPS,ioos:station:USF.COMPS:ARP:1,2013-12-04T07:06:00Z,28.4330,-82.6670,96.76,1111122 
COMPS,ioos:station:USF.COMPS:ARP:1,2013-12-04T07:12:00Z,28.4330,-82.6670,96.87,1111122 
COMPS,ioos:station:USF.COMPS:ARP:1,2013-12-04T07:18:00Z,28.4330,-82.6670,96.93,1111122 
COMPS,ioos:station:USF.COMPS:ARP:1,2013-12-04T07:24:00Z,28.4330,-82.6670,96.98,1111122 
COMPS,ioos:station:USF.COMPS:ARP:1,2013-12-04T07:30:00Z,28.4330,-82.6670,96.99,1111122 
COMPS,ioos:station:USF.COMPS:ARP:1,2013-12-04T07:36:00Z,28.4330,-82.6670,96.99,1111122 
COMPS,ioos:station:USF.COMPS:ARP:1,2013-12-04T07:42:00Z,28.4330,-82.6670,96.98,1111122 
COMPS,ioos:station:USF.COMPS:ARP:1,2013-12-04T07:48:00Z,28.4330,-82.6670,97.11,1111122 
COMPS,ioos:station:USF.COMPS:ARP:1,2013-12-04T07:54:00Z,28.4330,-82.6670,97.15,1111122 
COMPS,ioos:station:USF.COMPS:ARP:1,2013-12-04T08:00:00Z,28.4330,-82.6670,97.23,1111122 
COMPS,ioos:station:USF.COMPS:ARP:1,2013-12-04T08:06:00Z,28.4330,-82.6670,97.37,1111122 
COMPS,ioos:station:USF.COMPS:ARP:1,2013-12-04T08:12:00Z,28.4330,-82.6670,97.44,1111122 
COMPS,ioos:station:USF.COMPS:ARP:1,2013-12-04T08:18:00Z,28.4330,-82.6670,97.56,1111122 
COMPS,ioos:station:USF.COMPS:ARP:1,2013-12-04T08:24:00Z,28.4330,-82.6670,97.55,1111122 
COMPS,ioos:station:USF.COMPS:ARP:1,2013-12-04T08:30:00Z,28.4330,-82.6670,97.63,1111122 
COMPS,ioos:station:USF.COMPS:ARP:1,2013-12-04T08:36:00Z,28.4330,-82.6670,97.7,1111122 
COMPS,ioos:station:USF.COMPS:ARP:1,2013-12-04T08:42:00Z,28.4330,-82.6670,97.82,1111122 
COMPS,ioos:station:USF.COMPS:ARP:1,2013-12-04T08:48:00Z,28.4330,-82.6670,97.76,1111122 
COMPS,ioos:station:USF.COMPS:ARP:1,2013-12-04T08:54:00Z,28.4330,-82.6670,97.77,1111122 
COMPS,ioos:station:USF.COMPS:ARP:1,2013-12-04T09:00:00Z,28.4330,-82.6670,97.79,1111122 
COMPS,ioos:station:USF.COMPS:ARP:1,2013-12-04T09:06:00Z,28.4330,-82.6670,97.81,1111122 
COMPS,ioos:station:USF.COMPS:ARP:1,2013-12-04T09:12:00Z,28.4330,-82.6670,97.81,1111122 
COMPS,ioos:station:USF.COMPS:ARP:1,2013-12-04T09:18:00Z,28.4330,-82.6670,97.77,1111122 
COMPS,ioos:station:USF.COMPS:ARP:1,2013-12-04T09:24:00Z,28.4330,-82.6670,97.86,1111122 
COMPS,ioos:station:USF.COMPS:ARP:1,2013-12-04T09:30:00Z,28.4330,-82.6670,98.01,1111122 
COMPS,ioos:station:USF.COMPS:ARP:1,2013-12-04T09:36:00Z,28.4330,-82.6670,98.02,1111122 
COMPS,ioos:station:USF.COMPS:ARP:1,2013-12-04T09:42:00Z,28.4330,-82.6670,97.99,1111122 
COMPS,ioos:station:USF.COMPS:ARP:1,2013-12-04T09:48:00Z,28.4330,-82.6670,97.98,1111122 
COMPS,ioos:station:USF.COMPS:ARP:1,2013-12-04T09:54:00Z,28.4330,-82.6670,98.11,1111122 
COMPS,ioos:station:USF.COMPS:ARP:1,2013-12-04T10:00:00Z,28.4330,-82.6670,98.06,1111122 
COMPS,ioos:station:USF.COMPS:ARP:1,2013-12-04T10:06:00Z,28.4330,-82.6670,98.15,1111122 
COMPS,ioos:station:USF.COMPS:ARP:1,2013-12-04T10:12:00Z,28.4330,-82.6670,98.2,1111122 
COMPS,ioos:station:USF.COMPS:ARP:1,2013-12-04T10:18:00Z,28.4330,-82.6670,98.31,1111122 
COMPS,ioos:station:USF.COMPS:ARP:1,2013-12-04T10:24:00Z,28.4330,-82.6670,98.23,1111122 
COMPS,ioos:station:USF.COMPS:ARP:1,2013-12-04T10:30:00Z,28.4330,-82.6670,98.05,1111122 
COMPS,ioos:station:USF.COMPS:ARP:1,2013-12-04T10:36:00Z,28.4330,-82.6670,98.02,1111122 
COMPS,ioos:station:USF.COMPS:ARP:1,2013-12-04T10:42:00Z,28.4330,-82.6670,98.09,1111122 
COMPS,ioos:station:USF.COMPS:ARP:1,2013-12-04T10:48:00Z,28.4330,-82.6670,98.12,1111122 
COMPS,ioos:station:USF.COMPS:ARP:1,2013-12-04T10:54:00Z,28.4330,-82.6670,98.18,1111122 
COMPS,ioos:station:USF.COMPS:ARP:1,2013-12-04T11:00:00Z,28.4330,-82.6670,98.25,1111122 
COMPS,ioos:station:USF.COMPS:ARP:1,2013-12-04T11:06:00Z,28.4330,-82.6670,98.29,1111122 
COMPS,ioos:station:USF.COMPS:ARP:1,2013-12-04T11:12:00Z,28.4330,-82.6670,98.24,1111122 
COMPS,ioos:station:USF.COMPS:ARP:1,2013-12-04T11:18:00Z,28.4330,-82.6670,98.3,1111122 
COMPS,ioos:station:USF.COMPS:ARP:1,2013-12-04T11:24:00Z,28.4330,-82.6670,98.3,1111122 
COMPS,ioos:station:USF.COMPS:ARP:1,2013-12-04T11:30:00Z,28.4330,-82.6670,98.41,1111122 
COMPS,ioos:station:USF.COMPS:ARP:1,2013-12-04T11:36:00Z,28.4330,-82.6670,98.25,1111122 
COMPS,ioos:station:USF.COMPS:ARP:1,2013-12-04T11:42:00Z,28.4330,-82.6670,98.3,1111122 
COMPS,ioos:station:USF.COMPS:ARP:1,2013-12-04T11:48:00Z,28.4330,-82.6670,98.48,1111122 
COMPS,ioos:station:USF.COMPS:ARP:1,2013-12-04T11:54:00Z,28.4330,-82.6670,98.28,1111122 
COMPS,ioos:station:USF.COMPS:ARP:1,2013-12-04T12:00:00Z,28.4330,-82.6670,98.53,1111122 
COMPS,ioos:station:USF.COMPS:ARP:1,2013-12-04T12:06:00Z,28.4330,-82.6670,98.65,1111122 
COMPS,ioos:station:USF.COMPS:ARP:1,2013-12-04T12:12:00Z,28.4330,-82.6670,98.56,1111122 
COMPS,ioos:station:USF.COMPS:ARP:1,2013-12-04T12:18:00Z,28.4330,-82.6670,98.62,1111122 
COMPS,ioos:station:USF.COMPS:ARP:1,2013-12-04T12:24:00Z,28.4330,-82.6670,98.71,1111122 
COMPS,ioos:station:USF.COMPS:ARP:1,2013-12-04T12:30:00Z,28.4330,-82.6670,98.58,1111122 
COMPS,ioos:station:USF.COMPS:ARP:1,2013-12-04T12:36:00Z,28.4330,-82.6670,98.63,1111122 
COMPS,ioos:station:USF.COMPS:ARP:1,2013-12-04T12:42:00Z,28.4330,-82.6670,98.6,1111122 
COMPS,ioos:station:USF.COMPS:ARP:1,2013-12-04T12:48:00Z,28.4330,-82.6670,98.65,1111122 
COMPS,ioos:station:USF.COMPS:ARP:1,2013-12-04T12:54:00Z,28.4330,-82.6670,98.72,1111122 
COMPS,ioos:station:USF.COMPS:ARP:1,2013-12-04T13:00:00Z,28.4330,-82.6670,98.66,1111122 
COMPS,ioos:station:USF.COMPS:ARP:1,2013-12-04T13:06:00Z,28.4330,-82.6670,98.64,1111122 
COMPS,ioos:station:USF.COMPS:ARP:1,2013-12-04T13:12:00Z,28.4330,-82.6670,98.74,1111122 
COMPS,ioos:station:USF.COMPS:ARP:1,2013-12-04T13:18:00Z,28.4330,-82.6670,98.67,1111122 
COMPS,ioos:station:USF.COMPS:ARP:1,2013-12-04T13:24:00Z,28.4330,-82.6670,98.66,1111122 
COMPS,ioos:station:USF.COMPS:ARP:1,2013-12-04T13:30:00Z,28.4330,-82.6670,98.68,1111122 
COMPS,ioos:station:USF.COMPS:ARP:1,2013-12-04T13:36:00Z,28.4330,-82.6670,98.58,1111122 
COMPS,ioos:station:USF.COMPS:ARP:1,2013-12-04T13:42:00Z,28.4330,-82.6670,98.56,1111122 
COMPS,ioos:station:USF.COMPS:ARP:1,2013-12-04T13:48:00Z,28.4330,-82.6670,98.62,1111122 
COMPS,ioos:station:USF.COMPS:ARP:1,2013-12-04T13:54:00Z,28.4330,-82.6670,98.62,1111122 
COMPS,ioos:station:USF.COMPS:ARP:1,2013-12-04T14:00:00Z,28.4330,-82.6670,98.61,1111122 
COMPS,ioos:station:USF.COMPS:ARP:1,2013-12-04T14:06:00Z,28.4330,-82.6670,98.56,1111122 
COMPS,ioos:station:USF.COMPS:ARP:1,2013-12-04T14:12:00Z,28.4330,-82.6670,98.47,1111122 
COMPS,ioos:station:USF.COMPS:ARP:1,2013-12-04T14:18:00Z,28.4330,-82.6670,98.29,1111122 
COMPS,ioos:station:USF.COMPS:ARP:1,2013-12-04T14:24:00Z,28.4330,-82.6670,98.18,1111122 
COMPS,ioos:station:USF.COMPS:ARP:1,2013-12-04T14:30:00Z,28.4330,-82.6670,98.22,1111122 
COMPS,ioos:station:USF.COMPS:ARP:1,2013-12-04T14:36:00Z,28.4330,-82.6670,98.07,1111122 
COMPS,ioos:station:USF.COMPS:ARP:1,2013-12-04T14:42:00Z,28.4330,-82.6670,98.08,1111122 
COMPS,ioos:station:USF.COMPS:ARP:1,2013-12-04T14:48:00Z,28.4330,-82.6670,98.04,1111122 
COMPS,ioos:station:USF.COMPS:ARP:1,2013-12-04T14:54:00Z,28.4330,-82.6670,97.85,1111122 
COMPS,ioos:station:USF.COMPS:ARP:1,2013-12-04T15:00:00Z,28.4330,-82.6670,97.64,1111122 
COMPS,ioos:station:USF.COMPS:ARP:1,2013-12-04T15:06:00Z,28.4330,-82.6670,97.61,1111122 
COMPS,ioos:station:USF.COMPS:ARP:1,2013-12-04T15:12:00Z,28.4330,-82.6670,97.48,1111122 
COMPS,ioos:station:USF.COMPS:ARP:1,2013-12-04T15:18:00Z,28.4330,-82.6670,96.87,1111122 
COMPS,ioos:station:USF.COMPS:ARP:1,2013-12-04T15:24:00Z,28.4330,-82.6670,95.9,1111122 
COMPS,ioos:station:USF.COMPS:ARP:1,2013-12-04T15:30:00Z,28.4330,-82.6670,95.42,1111122 
COMPS,ioos:station:USF.COMPS:ARP:1,2013-12-04T15:36:00Z,28.4330,-82.6670,94.03,1111122 
COMPS,ioos:station:USF.COMPS:ARP:1,2013-12-04T15:42:00Z,28.4330,-82.6670,92.46,1111122 
COMPS,ioos:station:USF.COMPS:ARP:1,2013-12-04T15:48:00Z,28.4330,-82.6670,90.15,1111122 
COMPS,ioos:station:USF.COMPS:ARP:1,2013-12-04T15:54:00Z,28.4330,-82.6670,86.44,1111122 
COMPS,ioos:station:USF.COMPS:ARP:1,2013-12-04T16:00:00Z,28.4330,-82.6670,82.91,1111122 
COMPS,ioos:station:USF.COMPS:ARP:1,2013-12-04T16:06:00Z,28.4330,-82.6670,79.48,1111122 
COMPS,ioos:station:USF.COMPS:ARP:1,2013-12-04T16:12:00Z,28.4330,-82.6670,78.34,1111122 
COMPS,ioos:station:USF.COMPS:ARP:1,2013-12-04T16:18:00Z,28.4330,-82.6670,75.49,1111122 
COMPS,ioos:station:USF.COMPS:ARP:1,2013-12-04T16:24:00Z,28.4330,-82.6670,76.35,1111122 
COMPS,ioos:station:USF.COMPS:ARP:1,2013-12-04T16:30:00Z,28.4330,-82.6670,75.11,1111122 
COMPS,ioos:station:USF.COMPS:ARP:1,2013-12-04T16:36:00Z,28.4330,-82.6670,74.94,1111122 
COMPS,ioos:station:USF.COMPS:ARP:1,2013-12-04T16:42:00Z,28.4330,-82.6670,73.07,1111122 
COMPS,ioos:station:USF.COMPS:ARP:1,2013-12-04T16:48:00Z,28.4330,-82.6670,72.77,1111122 
COMPS,ioos:station:USF.COMPS:ARP:1,2013-12-04T16:54:00Z,28.4330,-82.6670,71.47,1111122 
COMPS,ioos:station:USF.COMPS:ARP:1,2013-12-04T17:00:00Z,28.4330,-82.6670,70.19,1111122 
COMPS,ioos:station:USF.COMPS:ARP:1,2013-12-04T17:06:00Z,28.4330,-82.6670,68.78,1111122 
COMPS,ioos:station:USF.COMPS:ARP:1,2013-12-04T17:12:00Z,28.4330,-82.6670,68.55,1111122 
COMPS,ioos:station:USF.COMPS:ARP:1,2013-12-04T17:18:00Z,28.4330,-82.6670,72.47,1111122 
COMPS,ioos:station:USF.COMPS:ARP:1,2013-12-04T17:24:00Z,28.4330,-82.6670,80.27,1111122 
COMPS,ioos:station:USF.COMPS:ARP:1,2013-12-04T17:30:00Z,28.4330,-82.6670,80.81,1111122 
COMPS,ioos:station:USF.COMPS:ARP:1,2013-12-04T17:36:00Z,28.4330,-82.6670,81.3,1111122 
COMPS,ioos:station:USF.COMPS:ARP:1,2013-12-04T17:42:00Z,28.4330,-82.6670,79.69,1111122 
COMPS,ioos:station:USF.COMPS:ARP:1,2013-12-04T17:48:00Z,28.4330,-82.6670,79.24,1111122 
COMPS,ioos:station:USF.COMPS:ARP:1,2013-12-04T17:54:00Z,28.4330,-82.6670,77.38,1111122 
COMPS,ioos:station:USF.COMPS:ARP:1,2013-12-04T18:00:00Z,28.4330,-82.6670,76.33,1111122 
COMPS,ioos:station:USF.COMPS:ARP:1,2013-12-04T18:06:00Z,28.4330,-82.6670,73.47,1111122 
COMPS,ioos:station:USF.COMPS:ARP:1,2013-12-04T18:12:00Z,28.4330,-82.6670,73.8,1111122 
COMPS,ioos:station:USF.COMPS:ARP:1,2013-12-04T18:18:00Z,28.4330,-82.6670,73.04,1111122 
COMPS,ioos:station:USF.COMPS:ARP:1,2013-12-04T18:24:00Z,28.4330,-82.6670,72.74,1111122 
COMPS,ioos:station:USF.COMPS:ARP:1,2013-12-04T18:30:00Z,28.4330,-82.6670,71.82,1111122 
COMPS,ioos:station:USF.COMPS:ARP:1,2013-12-04T18:36:00Z,28.4330,-82.6670,72.77,1111122 
COMPS,ioos:station:USF.COMPS:ARP:1,2013-12-04T18:42:00Z,28.4330,-82.6670,71.75,1111122 
COMPS,ioos:station:USF.COMPS:ARP:1,2013-12-04T18:48:00Z,28.4330,-82.6670,70.95,1111122 
COMPS,ioos:station:USF.COMPS:ARP:1,2013-12-04T18:54:00Z,28.4330,-82.6670,71.42,1111122 
COMPS,ioos:station:USF.COMPS:ARP:1,2013-12-04T19:00:00Z,28.4330,-82.6670,71.77,1111122 
COMPS,ioos:station:USF.COMPS:ARP:1,2013-12-04T19:06:00Z,28.4330,-82.6670,74.78,1111122 